星链-35467(STARLINK-35467)

导读 | 豆包AI

STARLINK-35467是美国于2025年11月6日发射的星链卫星,隶属于SpaceX公司的星链互联网卫星星座项目。作为星链系统的组成部分,它将与其他星链卫星协同,为全球尤其是偏远地区提供高速低延迟的宽带互联网接入服务,进一步完善星链星座的全球覆盖能力。

基本信息
目录编号:
66343
目录名称:
STARLINK-35467
国际标识:
2025-253AA
轨道中心:
EARTH
卫星名称:
星链-35467
卫星全名:
星链-35467(STARLINK-35467)
卫星状态:
在轨 (已飞行174 天)
发射日期:
2025-11-06 UTC
国别 :
美国 (US)
星等 :
--
轨道信息
数据来源 国际轨道数据
星历时间: 2026-04-29T04:29:26+0800
8小时前
查看轨道信息
半长轴: 6861.182km
偏心率: 0.0000613
轨道倾角: 43.002°
近地点辐角 284.435°
升交点赤经 289.448°
平近点角 75.643°
近地点: 482.624km
远地点: 483.466km
周期: 94.267分钟
每日圈数: 15.275814
详细信息
固有亮度:
5
最大亮度:
2.5
卫星平台:
Starlink V1.0
覆盖范围:
全球
运营商:
太空探索技术公司
运营商所在国:
美国
制造商(研发单位):
太空探索技术公司
制造商所在国:
美国
使用方式:
暂无
卫星简介
Starlink 计划是 SpaceX 推出的全球卫星互联网项目,通过发射低轨道卫星,为全球尤其是偏远地区提供高速、低延迟的互联网服务。自 2019 年起,Starlink 已部署数千颗卫星,旨在缩小全球数字鸿沟,推动互联网普及。该项目还为军事、航空等行业提供通信支持,带来广泛经济效益。
2D轨道图
3D轨道图
轨道高度分析图
轨道倾角分析图
轨道综合分析图
查看轨道综合分析图